TimePDT,TemperatureF,Dew PointF,Humidity,Sea Level PressureIn,VisibilityMPH,Wind Direction,Wind SpeedMPH,Gust SpeedMPH,PrecipitationIn,Events,Conditions,WindDirDegrees,DateUTC
12:53 AM,57.0,37.0,47,29.99,10.0,Calm,Calm,-,N/A,,Clear,0,2013-05-05 07:53:00
1:53 AM,53.1,39.9,61,29.98,10.0,Calm,Calm,-,N/A,,Clear,0,2013-05-05 08:53:00
2:53 AM,51.1,39.0,63,29.97,10.0,Calm,Calm,-,N/A,,Clear,0,2013-05-05 09:53:00
3:53 AM,48.9,39.9,71,29.96,10.0,NNE,6.9,-,N/A,,Clear,30,2013-05-05 10:53:00
4:53 AM,52.0,39.0,61,29.95,10.0,East,5.8,-,N/A,,Clear,80,2013-05-05 11:53:00
5:53 AM,52.0,39.0,61,29.94,8.0,Calm,Calm,-,N/A,,Clear,0,2013-05-05 12:53:00
6:53 AM,53.1,42.1,66,29.93,8.0,Calm,Calm,-,N/A,,Clear,0,2013-05-05 13:53:00
7:53 AM,64.0,43.0,46,29.92,8.0,Calm,Calm,-,N/A,,Clear,0,2013-05-05 14:53:00
8:53 AM,77.0,41.0,28,29.91,8.0,NE,13.8,20.7,N/A,,Clear,40,2013-05-05 15:53:00
9:53 AM,80.1,39.9,24,29.90,8.0,NNE,15.0,20.7,N/A,,Clear,30,2013-05-05 16:53:00
10:53 AM,82.4,42.8,25,29.89,8.0,NE,12.7,23.0,N/A,,Clear,40,2013-05-05 17:53:00
11:53 AM,84.9,41.0,21,29.87,9.0,NNE,12.7,20.7,N/A,,Clear,30,2013-05-05 18:53:00
12:53 PM,84.9,42.1,22,29.85,9.0,North,15.0,24.2,N/A,,Clear,10,2013-05-05 19:53:00
1:53 PM,86.0,39.9,20,29.83,9.0,NE,12.7,24.2,N/A,,Clear,40,2013-05-05 20:53:00
2:53 PM,88.0,39.9,18,29.82,9.0,NE,11.5,23.0,N/A,,Clear,50,2013-05-05 21:53:00
3:53 PM,88.0,37.0,16,29.80,9.0,NE,15.0,21.9,N/A,,Clear,50,2013-05-05 22:53:00
4:53 PM,87.1,35.1,16,29.79,9.0,NE,13.8,21.9,N/A,,Clear,40,2013-05-05 23:53:00
5:53 PM,86.0,33.1,15,29.77,9.0,NNE,11.5,18.4,N/A,,Clear,30,2013-05-06 00:53:00
6:53 PM,84.0,32.0,15,29.76,9.0,NNE,8.1,-,N/A,,Clear,30,2013-05-06 01:53:00
7:53 PM,81.0,34.0,18,29.76,9.0,NNE,9.2,-,N/A,,Clear,30,2013-05-06 02:53:00
8:53 PM,75.9,34.0,22,29.76,9.0,North,5.8,-,N/A,,Clear,10,2013-05-06 03:53:00
9:53 PM,66.0,43.0,43,29.78,10.0,Calm,Calm,-,N/A,,Clear,0,2013-05-06 04:53:00
10:53 PM,64.9,43.0,45,29.80,10.0,East,8.1,-,N/A,,Clear,80,2013-05-06 05:53:00
11:53 PM,64.9,42.1,43,29.81,10.0,ENE,8.1,-,N/A,,Clear,70,2013-05-06 06:53:00